(360198) = 1997 SO24 = 2001 QR185 = 2013 EX21

Discovered at Kitt Peak on 1997-09-30 by Spacewatch.

Orbit

Orbit type: Main Belt

Note: WebGL enabled browser required.

epoch2022-01-21.0
epoch JD2459600.5
perihelion date2019-07-21.32051
perihelion JD2458685.82051
argument of perihelion (°)25.62027
ascending node (°)300.13304
inclination (°)1.29350
eccentricity0.0844563
perihelion distance (AU)2.4908295
Tisserand w.r.t. Jupiter3.4
ΔV w.r.t. Earth (km/sec)9.9
semimajor axis (AU)2.7206014
mean anomaly (°)200.89791
mean daily motion (°/day)0.21963750
aphelion distance (AU)2.950
period (years)4.49
P-vector [x]0.82652699
P-vector [y]-0.52025305
P-vector [z]-0.21491833
Q-vector [x]0.56255841
Q-vector [y]0.75020877
Q-vector [z]0.34744040
absolute magnitude17.09
phase slope0.15
uncertainty0
referenceMPO 698286
observations used146
oppositions12
arc length (days)8973
first opposition used1997
last opposition used2022
residual rms (arc-secs)0.85
perturbers coarse indicatorM-v
perturbers precise indicator003Ek
first observation date used1997-09-30.0
last observation date used2022-04-25.0
computer namePan
Minimum Orbit Intersection Distances (in AU)
for orbit epoch: 2459600.5, reference: E2022-B04
Mercury2.07173
Venus1.76487
Earth1.47982
Mars1.10594
Jupiter2.28992
Saturn6.20427
Uranus15.4715
Neptune27.2492

Observations

147 total observations over interval: 1997 09 30.43778 – 2022 04 25.273431
These data are available for download (format description).

